Time,TemperatureF,DewpointF,PressureIn,WindDirection,WindDirectionDegrees,WindSpeedMPH,WindSpeedGustMPH,Humidity,HourlyPrecipIn,Conditions,Clouds,dailyrainin,SoftwareType,DateUTC
2013-04-22 00:01:00,66.0,48.4,30.19,North,0,0.0,3.0,53,0.00,,,0.00,WUHU21623XXSP,2013-04-22 05:01:00,
2013-04-22 00:03:00,66.0,48.4,30.19,North,0,0.0,3.0,53,0.00,,,0.00,WUHU21623XXSP,2013-04-22 05:03:00,
2013-04-22 00:04:00,66.0,48.4,30.19,North,0,0.0,3.0,53,0.00,,,0.00,WUHU21623XXSP,2013-04-22 05:04:00,
2013-04-22 00:06:00,66.0,48.4,30.19,North,0,0.0,3.0,53,0.00,,,0.00,WUHU21623XXSP,2013-04-22 05:06:00,
2013-04-22 00:08:00,66.0,48.4,30.19,North,0,0.0,0.0,53,0.00,,,0.00,WUHU21623XXSP,2013-04-22 05:08:00,
2013-04-22 00:09:00,65.8,48.2,30.19,North,0,0.0,0.0,53,0.00,,,0.00,WUHU21623XXSP,2013-04-22 05:09:00,
2013-04-22 00:10:00,65.8,48.2,30.19,North,0,0.0,0.0,53,0.00,,,0.00,WUHU21623XXSP,2013-04-22 05:10:00,
2013-04-22 00:11:00,65.5,48.3,30.19,ESE,107,2.0,3.0,54,0.00,,,0.00,WUHU21623XXSP,2013-04-22 05:11:00,
2013-04-22 00:12:00,65.5,48.3,30.19,East,90,3.0,4.0,54,0.00,,,0.00,WUHU21623XXSP,2013-04-22 05:12:00,
2013-04-22 00:13:00,65.5,48.3,30.19,East,90,4.0,4.0,54,0.00,,,0.00,WUHU21623XXSP,2013-04-22 05:13:00,
2013-04-22 00:14:00,65.5,48.3,30.18,East,91,3.0,4.0,54,0.00,,,0.00,WUHU21623XXSP,2013-04-22 05:14:00,
2013-04-22 00:15:00,65.5,48.3,30.19,East,90,4.0,4.0,54,0.00,,,0.00,WUHU21623XXSP,2013-04-22 05:15:00,
2013-04-22 00:16:00,65.3,48.2,30.19,ENE,67,5.0,5.0,54,0.00,,,0.00,WUHU21623XXSP,2013-04-22 05:16:00,
2013-04-22 00:17:00,65.3,48.2,30.19,East,89,4.0,5.0,54,0.00,,,0.00,WUHU21623XXSP,2013-04-22 05:17:00,
2013-04-22 00:18:00,65.3,48.2,30.19,East,92,4.0,7.0,54,0.00,,,0.00,WUHU21623XXSP,2013-04-22 05:18:00,
2013-04-22 00:19:00,65.3,48.2,30.19,East,90,4.0,7.0,54,0.00,,,0.00,WUHU21623XXSP,2013-04-22 05:19:00,
2013-04-22 00:20:00,65.1,48.0,30.18,East,97,3.0,7.0,54,0.00,,,0.00,WUHU21623XXSP,2013-04-22 05:20:00,
2013-04-22 00:21:00,65.1,48.0,30.18,ESE,112,3.0,7.0,54,0.00,,,0.00,WUHU21623XXSP,2013-04-22 05:21:00,
2013-04-22 00:22:00,65.1,48.0,30.19,ESE,112,3.0,7.0,54,0.00,,,0.00,WUHU21623XXSP,2013-04-22 05:22:00,
2013-04-22 00:23:00,65.1,48.0,30.19,ENE,67,4.0,7.0,54,0.00,,,0.00,WUHU21623XXSP,2013-04-22 05:23:00,
2013-04-22 00:24:00,65.1,48.0,30.19,ENE,67,4.0,7.0,54,0.00,,,0.00,WUHU21623XXSP,2013-04-22 05:24:00,
2013-04-22 00:25:00,65.5,48.3,30.19,East,99,2.0,4.0,54,0.00,,,0.00,WUHU21623XXSP,2013-04-22 05:25:00,
2013-04-22 00:26:00,65.1,48.0,30.19,ESE,112,3.0,7.0,54,0.00,,,0.00,WUHU21623XXSP,2013-04-22 05:26:00,
2013-04-22 00:27:00,65.1,48.0,30.19,East,96,4.0,7.0,54,0.00,,,0.00,WUHU21623XXSP,2013-04-22 05:27:00,
2013-04-22 00:28:00,65.1,48.0,30.19,East,89,3.0,5.0,54,0.00,,,0.00,WUHU21623XXSP,2013-04-22 05:28:00,
2013-04-22 00:30:00,65.1,48.0,30.18,East,89,3.0,5.0,54,0.00,,,0.00,WUHU21623XXSP,2013-04-22 05:30:00,
2013-04-22 00:31:00,65.1,48.0,30.18,ENE,67,4.0,5.0,54,0.00,,,0.00,WUHU21623XXSP,2013-04-22 05:31:00,
2013-04-22 00:32:00,65.1,48.0,30.18,East,92,3.0,5.0,54,0.00,,,0.00,WUHU21623XXSP,2013-04-22 05:32:00,
2013-04-22 00:33:00,65.1,48.0,30.18,ESE,102,3.0,5.0,54,0.00,,,0.00,WUHU21623XXSP,2013-04-22 05:33:00,
2013-04-22 00:34:00,65.1,48.0,30.19,ENE,67,4.0,7.0,54,0.00,,,0.00,WUHU21623XXSP,2013-04-22 05:34:00,
2013-04-22 00:35:00,65.1,48.0,30.18,East,90,3.0,5.0,54,0.00,,,0.00,WUHU21623XXSP,2013-04-22 05:35:00,
2013-04-22 00:36:00,65.1,48.0,30.19,East,90,5.0,7.0,54,0.00,,,0.00,WUHU21623XXSP,2013-04-22 05:36:00,
2013-04-22 00:37:00,65.1,48.0,30.18,East,101,3.0,5.0,54,0.00,,,0.00,WUHU21623XXSP,2013-04-22 05:37:00,
2013-04-22 00:38:00,65.1,48.0,30.19,East,90,3.0,5.0,54,0.00,,,0.00,WUHU21623XXSP,2013-04-22 05:38:00,
2013-04-22 00:39:00,65.1,48.0,30.18,East,90,3.0,5.0,54,0.00,,,0.00,WUHU21623XXSP,2013-04-22 05:39:00,
2013-04-22 00:40:00,64.9,47.8,30.18,East,82,4.0,5.0,54,0.00,,,0.00,WUHU21623XXSP,2013-04-22 05:40:00,
2013-04-22 00:43:00,65.1,48.0,30.18,ESE,102,3.0,5.0,54,0.00,,,0.00,WUHU21623XXSP,2013-04-22 05:43:00,
2013-04-22 00:44:00,65.1,48.0,30.18,East,90,2.0,5.0,54,0.00,,,0.00,WUHU21623XXSP,2013-04-22 05:44:00,
2013-04-22 00:48:00,64.9,47.8,30.18,East,97,3.0,5.0,54,0.00,,,0.00,WUHU21623XXSP,2013-04-22 05:48:00,
2013-04-22 00:49:00,64.9,47.8,30.18,East,101,3.0,5.0,54,0.00,,,0.00,WUHU21623XXSP,2013-04-22 05:49:00,
2013-04-22 00:51:00,64.9,47.8,30.18,East,79,4.0,5.0,54,0.00,,,0.00,WUHU21623XXSP,2013-04-22 05:51:00,
2013-04-22 00:53:00,64.9,47.8,30.18,ENE,78,3.0,5.0,54,0.00,,,0.00,WUHU21623XXSP,2013-04-22 05:53:00,
2013-04-22 00:54:00,64.9,47.8,30.18,ENE,67,3.0,5.0,54,0.00,,,0.00,WUHU21623XXSP,2013-04-22 05:54:00,
2013-04-22 00:56:00,64.8,47.6,30.18,ENE,67,5.0,5.0,54,0.00,,,0.00,WUHU21623XXSP,2013-04-22 05:56:00,
2013-04-22 00:58:00,64.8,47.6,30.18,ESE,107,4.0,5.0,54,0.00,,,0.00,WUHU21623XXSP,2013-04-22 05:58:00,
2013-04-22 00:59:00,64.8,47.6,30.18,ESE,105,4.0,5.0,54,0.00,,,0.00,WUHU21623XXSP,2013-04-22 05:59:00,
2013-04-22 01:01:00,64.6,47.4,30.18,East,96,4.0,5.0,54,0.00,,,0.00,WUHU21623XXSP,2013-04-22 06:01:00,
2013-04-22 01:04:00,64.6,47.4,30.18,SE,135,5.0,5.0,54,0.00,,,0.00,WUHU21623XXSP,2013-04-22 06:04:00,
2013-04-22 01:05:00,64.6,47.4,30.17,ESE,118,4.0,5.0,54,0.00,,,0.00,WUHU21623XXSP,2013-04-22 06:05:00,
2013-04-22 01:07:00,64.6,47.4,30.17,East,99,5.0,8.0,54,0.00,,,0.00,WUHU21623XXSP,2013-04-22 06:07:00,
2013-04-22 01:09:00,64.2,47.1,30.17,ESE,115,5.0,8.0,54,0.00,,,0.00,WUHU21623XXSP,2013-04-22 06:09:00,
2013-04-22 01:10:00,64.2,47.1,30.17,East,90,5.0,5.0,54,0.00,,,0.00,WUHU21623XXSP,2013-04-22 06:10:00,
2013-04-22 01:11:00,64.0,46.5,30.17,ESE,112,5.0,9.0,53,0.00,,,0.00,WUHU21623XXSP,2013-04-22 06:11:00,
2013-04-22 01:12:00,64.0,46.6,30.17,ESE,106,5.0,9.0,53,0.00,,,0.00,WUHU21623XXSP,2013-04-22 06:12:00,
2013-04-22 01:13:00,64.0,46.5,30.17,ENE,67,9.0,9.0,53,0.00,,,0.00,WUHU21623XXSP,2013-04-22 06:13:00,
2013-04-22 01:14:00,64.0,46.5,30.17,East,95,5.0,9.0,53,0.00,,,0.00,WUHU21623XXSP,2013-04-22 06:14:00,
2013-04-22 01:15:00,63.7,46.1,30.17,ESE,112,3.0,9.0,53,0.00,,,0.00,WUHU21623XXSP,2013-04-22 06:15:00,
2013-04-22 01:16:00,63.7,46.1,30.17,East,100,3.0,9.0,53,0.00,,,0.00,WUHU21623XXSP,2013-04-22 06:16:00,
2013-04-22 01:17:00,63.7,46.1,30.17,ESE,112,5.0,9.0,53,0.00,,,0.00,WUHU21623XXSP,2013-04-22 06:17:00,
2013-04-22 01:18:00,63.7,46.1,30.17,ESE,112,5.0,9.0,53,0.00,,,0.00,WUHU21623XXSP,2013-04-22 06:18:00,
2013-04-22 01:19:00,63.7,46.1,30.17,East,100,5.0,9.0,53,0.00,,,0.00,WUHU21623XXSP,2013-04-22 06:19:00,
2013-04-22 01:20:00,63.7,46.1,30.17,East,90,5.0,9.0,53,0.00,,,0.00,WUHU21623XXSP,2013-04-22 06:20:00,
2013-04-22 01:21:00,63.7,46.1,30.18,ESE,103,4.0,9.0,53,0.00,,,0.00,WUHU21623XXSP,2013-04-22 06:21:00,
2013-04-22 01:22:00,63.7,46.1,30.18,ESE,104,3.0,9.0,53,0.00,,,0.00,WUHU21623XXSP,2013-04-22 06:22:00,
2013-04-22 01:23:00,64.0,46.5,30.17,East,90,5.0,9.0,53,0.00,,,0.00,WUHU21623XXSP,2013-04-22 06:23:00,
2013-04-22 01:24:00,64.0,46.5,30.17,East,95,5.0,9.0,53,0.00,,,0.00,WUHU21623XXSP,2013-04-22 06:24:00,
2013-04-22 01:25:00,63.7,46.1,30.17,SE,126,5.0,9.0,53,0.00,,,0.00,WUHU21623XXSP,2013-04-22 06:25:00,
2013-04-22 01:29:00,63.7,46.1,30.17,ESE,102,4.0,9.0,53,0.00,,,0.00,WUHU21623XXSP,2013-04-22 06:29:00,
2013-04-22 01:30:00,63.7,46.1,30.17,ESE,112,6.0,9.0,53,0.00,,,0.00,WUHU21623XXSP,2013-04-22 06:30:00,
2013-04-22 01:31:00,63.7,46.1,30.18,SE,124,2.0,9.0,53,0.00,,,0.00,WUHU21623XXSP,2013-04-22 06:31:00,
2013-04-22 01:32:00,63.7,46.1,30.18,ESE,118,2.0,9.0,53,0.00,,,0.00,WUHU21623XXSP,2013-04-22 06:32:00,
2013-04-22 01:33:00,63.7,46.1,30.18,ESE,112,2.0,9.0,53,0.00,,,0.00,WUHU21623XXSP,2013-04-22 06:33:00,
2013-04-22 01:34:00,63.7,46.1,30.17,SE,129,5.0,9.0,53,0.00,,,0.00,WUHU21623XXSP,2013-04-22 06:34:00,
2013-04-22 01:35:00,63.7,46.1,30.17,SE,126,5.0,9.0,53,0.00,,,0.00,WUHU21623XXSP,2013-04-22 06:35:00,
2013-04-22 01:37:00,63.7,46.1,30.18,SE,132,3.0,5.0,53,0.00,,,0.00,WUHU21623XXSP,2013-04-22 06:37:00,
2013-04-22 01:38:00,63.7,46.1,30.17,SE,136,3.0,5.0,53,0.00,,,0.00,WUHU21623XXSP,2013-04-22 06:38:00,
2013-04-22 01:39:00,63.7,46.1,30.17,SE,135,3.0,5.0,53,0.00,,,0.00,WUHU21623XXSP,2013-04-22 06:39:00,
2013-04-22 01:40:00,63.7,46.1,30.18,ESE,109,3.0,9.0,53,0.00,,,0.00,WUHU21623XXSP,2013-04-22 06:40:00,
2013-04-22 01:41:00,63.7,46.1,30.18,ESE,109,2.0,9.0,53,0.00,,,0.00,WUHU21623XXSP,2013-04-22 06:41:00,
2013-04-22 01:42:00,63.7,46.1,30.17,ESE,118,3.0,5.0,53,0.00,,,0.00,WUHU21623XXSP,2013-04-22 06:42:00,
2013-04-22 01:43:00,63.7,46.1,30.17,SE,135,3.0,5.0,53,0.00,,,0.00,WUHU21623XXSP,2013-04-22 06:43:00,
2013-04-22 01:44:00,63.7,46.1,30.17,SE,129,3.0,5.0,53,0.00,,,0.00,WUHU21623XXSP,2013-04-22 06:44:00,
2013-04-22 01:45:00,63.7,46.1,30.18,ESE,112,4.0,7.0,53,0.00,,,0.00,WUHU21623XXSP,2013-04-22 06:45:00,
2013-04-22 01:46:00,63.7,46.1,30.18,ESE,114,3.0,5.0,53,0.00,,,0.00,WUHU21623XXSP,2013-04-22 06:46:00,
2013-04-22 01:47:00,63.7,46.1,30.17,ESE,112,5.0,5.0,53,0.00,,,0.00,WUHU21623XXSP,2013-04-22 06:47:00,
2013-04-22 01:48:00,63.7,46.1,30.17,ESE,117,4.0,5.0,53,0.00,,,0.00,WUHU21623XXSP,2013-04-22 06:48:00,
2013-04-22 01:49:00,63.7,46.1,30.17,SE,134,5.0,5.0,53,0.00,,,0.00,WUHU21623XXSP,2013-04-22 06:49:00,
2013-04-22 01:50:00,63.7,46.1,30.17,SE,141,4.0,5.0,53,0.00,,,0.00,WUHU21623XXSP,2013-04-22 06:50:00,
2013-04-22 01:51:00,63.7,46.1,30.17,ESE,122,3.0,5.0,53,0.00,,,0.00,WUHU21623XXSP,2013-04-22 06:51:00,
2013-04-22 01:52:00,63.7,46.1,30.17,SE,124,3.0,5.0,53,0.00,,,0.00,WUHU21623XXSP,2013-04-22 06:52:00,
2013-04-22 01:53:00,63.7,46.1,30.17,ESE,113,3.0,5.0,53,0.00,,,0.00,WUHU21623XXSP,2013-04-22 06:53:00,
2013-04-22 01:54:00,63.7,46.1,30.17,SE,132,3.0,5.0,53,0.00,,,0.00,WUHU21623XXSP,2013-04-22 06:54:00,
2013-04-22 01:55:00,63.7,46.1,30.17,SE,133,3.0,6.0,53,0.00,,,0.00,WUHU21623XXSP,2013-04-22 06:55:00,
2013-04-22 01:56:00,63.7,46.1,30.17,SE,131,4.0,6.0,53,0.00,,,0.00,WUHU21623XXSP,2013-04-22 06:56:00,
2013-04-22 01:57:00,63.7,46.1,30.17,SE,127,3.0,6.0,53,0.00,,,0.00,WUHU21623XXSP,2013-04-22 06:57:00,
2013-04-22 01:58:00,63.7,46.1,30.17,ESE,112,4.0,6.0,53,0.00,,,0.00,WUHU21623XXSP,2013-04-22 06:58:00,
2013-04-22 01:59:00,63.7,46.1,30.17,SE,135,5.0,7.0,53,0.00,,,0.00,WUHU21623XXSP,2013-04-22 06:59:00,
2013-04-22 02:02:00,63.7,46.1,30.17,ENE,67,3.0,5.0,53,0.00,,,0.00,WUHU21623XXSP,2013-04-22 07:02:00,
2013-04-22 02:03:00,63.7,46.1,30.17,ESE,112,4.0,5.0,53,0.00,,,0.00,WUHU21623XXSP,2013-04-22 07:03:00,
2013-04-22 02:05:00,63.7,46.1,30.17,East,90,4.0,5.0,53,0.00,,,0.00,WUHU21623XXSP,2013-04-22 07:05:00,
2013-04-22 02:07:00,63.7,46.1,30.17,ESE,114,3.0,6.0,53,0.00,,,0.00,WUHU21623XXSP,2013-04-22 07:07:00,
2013-04-22 02:08:00,63.7,46.1,30.17,ESE,112,4.0,6.0,53,0.00,,,0.00,WUHU21623XXSP,2013-04-22 07:08:00,
2013-04-22 02:09:00,63.7,46.1,30.17,ESE,112,3.0,7.0,53,0.00,,,0.00,WUHU21623XXSP,2013-04-22 07:09:00,
2013-04-22 02:10:00,63.7,46.1,30.17,SE,135,3.0,3.0,53,0.00,,,0.00,WUHU21623XXSP,2013-04-22 07:10:00,
2013-04-22 02:11:00,63.5,45.5,30.17,ESE,112,3.0,3.0,52,0.00,,,0.00,WUHU21623XXSP,2013-04-22 07:11:00,
2013-04-22 02:12:00,63.5,45.5,30.17,ESE,112,4.0,7.0,52,0.00,,,0.00,WUHU21623XXSP,2013-04-22 07:12:00,
2013-04-22 02:13:00,63.5,45.5,30.17,ESE,116,3.0,7.0,52,0.00,,,0.00,WUHU21623XXSP,2013-04-22 07:13:00,
2013-04-22 02:14:00,63.5,45.5,30.17,SE,124,3.0,7.0,52,0.00,,,0.00,WUHU21623XXSP,2013-04-22 07:14:00,
2013-04-22 02:15:00,63.5,45.5,30.16,SE,126,2.0,7.0,52,0.00,,,0.00,WUHU21623XXSP,2013-04-22 07:15:00,
2013-04-22 02:16:00,63.5,45.5,30.16,SE,124,2.0,7.0,52,0.00,,,0.00,WUHU21623XXSP,2013-04-22 07:16:00,
2013-04-22 02:17:00,63.5,45.5,30.16,ESE,112,2.0,7.0,52,0.00,,,0.00,WUHU21623XXSP,2013-04-22 07:17:00,
2013-04-22 02:18:00,63.5,45.5,30.16,ESE,112,2.0,7.0,52,0.00,,,0.00,WUHU21623XXSP,2013-04-22 07:18:00,
2013-04-22 02:19:00,63.5,45.5,30.16,ESE,112,3.0,7.0,52,0.00,,,0.00,WUHU21623XXSP,2013-04-22 07:19:00,
2013-04-22 02:20:00,63.5,45.5,30.16,ESE,119,3.0,7.0,52,0.00,,,0.00,WUHU21623XXSP,2013-04-22 07:20:00,
2013-04-22 02:21:00,63.5,46.0,30.16,ESE,115,3.0,7.0,53,0.00,,,0.00,WUHU21623XXSP,2013-04-22 07:21:00,
2013-04-22 02:22:00,63.3,45.8,30.16,ESE,118,3.0,4.0,53,0.00,,,0.00,WUHU21623XXSP,2013-04-22 07:22:00,
2013-04-22 02:23:00,63.5,46.0,30.16,ESE,108,3.0,4.0,53,0.00,,,0.00,WUHU21623XXSP,2013-04-22 07:23:00,
2013-04-22 02:25:00,63.5,45.5,30.16,East,90,1.0,4.0,52,0.00,,,0.00,WUHU21623XXSP,2013-04-22 07:25:00,
2013-04-22 02:26:00,63.3,45.3,30.16,ESE,112,2.0,4.0,52,0.00,,,0.00,WUHU21623XXSP,2013-04-22 07:26:00,
2013-04-22 02:27:00,63.5,46.0,30.16,East,90,3.0,5.0,53,0.00,,,0.00,WUHU21623XXSP,2013-04-22 07:27:00,
2013-04-22 02:28:00,63.5,46.0,30.16,ESE,109,4.0,5.0,53,0.00,,,0.00,WUHU21623XXSP,2013-04-22 07:28:00,
2013-04-22 02:29:00,63.5,45.5,30.16,ESE,121,3.0,7.0,52,0.00,,,0.00,WUHU21623XXSP,2013-04-22 07:29:00,
2013-04-22 02:30:00,63.5,45.5,30.16,ESE,121,3.0,7.0,52,0.00,,,0.00,WUHU21623XXSP,2013-04-22 07:30:00,
2013-04-22 02:31:00,63.3,45.8,30.16,ESE,117,3.0,5.0,53,0.00,,,0.00,WUHU21623XXSP,2013-04-22 07:31:00,
2013-04-22 02:33:00,63.3,45.8,30.16,ESE,120,2.0,5.0,53,0.00,,,0.00,WUHU21623XXSP,2013-04-22 07:33:00,
2013-04-22 02:34:00,63.3,45.3,30.16,ESE,112,4.0,5.0,52,0.00,,,0.00,WUHU21623XXSP,2013-04-22 07:34:00,
2013-04-22 02:35:00,63.3,45.8,30.16,ESE,114,2.0,5.0,53,0.00,,,0.00,WUHU21623XXSP,2013-04-22 07:35:00,
2013-04-22 02:36:00,63.3,45.8,30.16,ESE,112,3.0,5.0,53,0.00,,,0.00,WUHU21623XXSP,2013-04-22 07:36:00,
2013-04-22 02:37:00,63.3,45.8,30.16,ESE,107,3.0,4.0,53,0.00,,,0.00,WUHU21623XXSP,2013-04-22 07:37:00,
2013-04-22 02:39:00,63.3,45.3,30.16,ESE,112,4.0,5.0,52,0.00,,,0.00,WUHU21623XXSP,2013-04-22 07:39:00,
2013-04-22 02:40:00,63.3,45.8,30.16,ESE,112,3.0,5.0,53,0.00,,,0.00,WUHU21623XXSP,2013-04-22 07:40:00,
2013-04-22 02:41:00,63.3,45.8,30.16,ESE,112,3.0,5.0,53,0.00,,,0.00,WUHU21623XXSP,2013-04-22 07:41:00,
2013-04-22 03:14:00,63.0,45.5,30.15,SE,135,2.0,2.0,53,0.00,,,0.00,WUHU21623XXSP,2013-04-22 08:14:00,
2013-04-22 03:16:00,63.0,45.5,30.15,SE,135,3.0,3.0,53,0.00,,,0.00,WUHU21623XXSP,2013-04-22 08:16:00,
2013-04-22 03:23:00,63.0,45.5,30.15,East,90,0.0,3.0,53,0.00,,,0.00,WUHU21623XXSP,2013-04-22 08:23:00,
2013-04-22 03:24:00,63.0,45.5,30.15,ESE,112,0.0,3.0,53,0.00,,,0.00,WUHU21623XXSP,2013-04-22 08:24:00,
2013-04-22 03:25:00,63.0,45.5,30.15,ENE,67,1.0,3.0,53,0.00,,,0.00,WUHU21623XXSP,2013-04-22 08:25:00,
2013-04-22 03:26:00,62.8,45.3,30.15,ESE,112,2.0,3.0,53,0.00,,,0.00,WUHU21623XXSP,2013-04-22 08:26:00,
2013-04-22 03:27:00,63.0,45.5,30.14,East,88,2.0,2.0,53,0.00,,,0.00,WUHU21623XXSP,2013-04-22 08:27:00,
2013-04-22 03:28:00,62.8,45.8,30.14,ESE,112,2.0,3.0,54,0.00,,,0.00,WUHU21623XXSP,2013-04-22 08:28:00,
2013-04-22 03:30:00,62.8,45.8,30.15,ESE,112,2.0,3.0,54,0.00,,,0.00,WUHU21623XXSP,2013-04-22 08:30:00,
2013-04-22 03:31:00,63.0,46.0,30.15,East,90,0.0,3.0,54,0.00,,,0.00,WUHU21623XXSP,2013-04-22 08:31:00,
2013-04-22 03:36:00,62.8,45.8,30.15,ESE,112,0.0,3.0,54,0.00,,,0.00,WUHU21623XXSP,2013-04-22 08:36:00,
2013-04-22 03:37:00,62.8,45.8,30.15,ESE,112,1.0,3.0,54,0.00,,,0.00,WUHU21623XXSP,2013-04-22 08:37:00,
2013-04-22 03:38:00,62.8,45.8,30.15,SE,135,2.0,2.0,54,0.00,,,0.00,WUHU21623XXSP,2013-04-22 08:38:00,
2013-04-22 03:39:00,62.8,45.8,30.15,ESE,118,2.0,4.0,54,0.00,,,0.00,WUHU21623XXSP,2013-04-22 08:39:00,
2013-04-22 03:40:00,62.8,45.8,30.15,ESE,118,3.0,4.0,54,0.00,,,0.00,WUHU21623XXSP,2013-04-22 08:40:00,
2013-04-22 03:43:00,62.8,45.3,30.14,ESE,112,3.0,4.0,53,0.00,,,0.00,WUHU21623XXSP,2013-04-22 08:43:00,
2013-04-22 03:44:00,62.8,45.3,30.15,ESE,123,2.0,4.0,53,0.00,,,0.00,WUHU21623XXSP,2013-04-22 08:44:00,
2013-04-22 03:45:00,62.8,45.3,30.14,ESE,112,3.0,4.0,53,0.00,,,0.00,WUHU21623XXSP,2013-04-22 08:45:00,
2013-04-22 03:46:00,62.8,45.3,30.15,ESE,102,2.0,4.0,53,0.00,,,0.00,WUHU21623XXSP,2013-04-22 08:46:00,
2013-04-22 03:47:00,62.8,45.3,30.14,SE,126,2.0,4.0,53,0.00,,,0.00,WUHU21623XXSP,2013-04-22 08:47:00,
2013-04-22 03:48:00,62.8,45.3,30.14,SE,135,2.0,4.0,53,0.00,,,0.00,WUHU21623XXSP,2013-04-22 08:48:00,
2013-04-22 03:49:00,62.8,45.3,30.14,SE,135,2.0,3.0,53,0.00,,,0.00,WUHU21623XXSP,2013-04-22 08:49:00,
2013-04-22 03:50:00,62.8,45.3,30.15,SE,142,3.0,5.0,53,0.00,,,0.00,WUHU21623XXSP,2013-04-22 08:50:00,
2013-04-22 03:51:00,62.8,45.3,30.15,SE,132,3.0,5.0,53,0.00,,,0.00,WUHU21623XXSP,2013-04-22 08:51:00,
2013-04-22 03:52:00,62.8,45.3,30.14,SE,135,3.0,5.0,53,0.00,,,0.00,WUHU21623XXSP,2013-04-22 08:52:00,
2013-04-22 03:53:00,62.8,45.3,30.14,SE,135,4.0,5.0,53,0.00,,,0.00,WUHU21623XXSP,2013-04-22 08:53:00,
2013-04-22 03:54:00,62.8,45.3,30.15,SE,126,3.0,5.0,53,0.00,,,0.00,WUHU21623XXSP,2013-04-22 08:54:00,
2013-04-22 03:55:00,62.8,45.3,30.14,ESE,112,5.0,6.0,53,0.00,,,0.00,WUHU21623XXSP,2013-04-22 08:55:00,
2013-04-22 03:56:00,62.8,45.3,30.14,SE,130,3.0,6.0,53,0.00,,,0.00,WUHU21623XXSP,2013-04-22 08:56:00,
2013-04-22 03:57:00,62.8,45.3,30.14,SE,133,3.0,6.0,53,0.00,,,0.00,WUHU21623XXSP,2013-04-22 08:57:00,
2013-04-22 03:58:00,62.8,45.3,30.15,SSE,164,3.0,6.0,53,0.00,,,0.00,WUHU21623XXSP,2013-04-22 08:58:00,
2013-04-22 03:59:00,62.8,45.3,30.15,SSE,157,5.0,6.0,53,0.00,,,0.00,WUHU21623XXSP,2013-04-22 08:59:00,
2013-04-22 04:02:00,62.8,45.3,30.15,SE,135,1.0,6.0,53,0.00,,,0.00,WUHU21623XXSP,2013-04-22 09:02:00,
2013-04-22 04:03:00,62.8,45.3,30.15,SE,135,1.0,6.0,53,0.00,,,0.00,WUHU21623XXSP,2013-04-22 09:03:00,
2013-04-22 04:04:00,62.8,45.3,30.14,SE,129,3.0,5.0,53,0.00,,,0.00,WUHU21623XXSP,2013-04-22 09:04:00,
2013-04-22 04:05:00,62.8,45.3,30.14,ESE,112,5.0,6.0,53,0.00,,,0.00,WUHU21623XXSP,2013-04-22 09:05:00,
2013-04-22 04:06:00,62.6,45.2,30.14,ESE,112,4.0,5.0,53,0.00,,,0.00,WUHU21623XXSP,2013-04-22 09:06:00,
2013-04-22 04:07:00,62.6,45.2,30.14,SE,124,3.0,5.0,53,0.00,,,0.00,WUHU21623XXSP,2013-04-22 09:07:00,
2013-04-22 04:08:00,62.6,45.2,30.15,SE,143,4.0,4.0,53,0.00,,,0.00,WUHU21623XXSP,2013-04-22 09:08:00,
2013-04-22 04:09:00,62.6,45.2,30.15,SSE,166,4.0,4.0,53,0.00,,,0.00,WUHU21623XXSP,2013-04-22 09:09:00,
2013-04-22 04:10:00,62.6,45.2,30.15,SE,146,3.0,4.0,53,0.00,,,0.00,WUHU21623XXSP,2013-04-22 09:10:00,
2013-04-22 04:11:00,62.6,45.2,30.14,SE,135,5.0,5.0,53,0.00,,,0.00,WUHU21623XXSP,2013-04-22 09:11:00,
2013-04-22 04:12:00,62.8,45.3,30.14,ESE,112,3.0,6.0,53,0.00,,,0.00,WUHU21623XXSP,2013-04-22 09:12:00,
2013-04-22 04:13:00,62.6,45.2,30.14,SE,130,4.0,5.0,53,0.00,,,0.00,WUHU21623XXSP,2013-04-22 09:13:00,
2013-04-22 04:14:00,62.4,45.0,30.14,SE,135,4.0,5.0,53,0.00,,,0.00,WUHU21623XXSP,2013-04-22 09:14:00,
2013-04-22 04:15:00,62.4,45.0,30.14,SE,132,3.0,5.0,53,0.00,,,0.00,WUHU21623XXSP,2013-04-22 09:15:00,
2013-04-22 04:16:00,62.4,45.0,30.14,SE,128,3.0,7.0,53,0.00,,,0.00,WUHU21623XXSP,2013-04-22 09:16:00,
2013-04-22 04:17:00,62.4,45.0,30.14,SSE,157,7.0,7.0,53,0.00,,,0.00,WUHU21623XXSP,2013-04-22 09:17:00,
2013-04-22 04:18:00,62.4,45.0,30.14,SE,144,3.0,7.0,53,0.00,,,0.00,WUHU21623XXSP,2013-04-22 09:18:00,
2013-04-22 04:19:00,62.4,45.0,30.14,SE,134,4.0,7.0,53,0.00,,,0.00,WUHU21623XXSP,2013-04-22 09:19:00,
2013-04-22 04:20:00,62.6,45.2,30.14,SE,135,4.0,4.0,53,0.00,,,0.00,WUHU21623XXSP,2013-04-22 09:20:00,
2013-04-22 04:21:00,62.4,45.0,30.14,ESE,112,5.0,7.0,53,0.00,,,0.00,WUHU21623XXSP,2013-04-22 09:21:00,
2013-04-22 04:22:00,62.4,45.0,30.14,ESE,109,5.0,7.0,53,0.00,,,0.00,WUHU21623XXSP,2013-04-22 09:22:00,
2013-04-22 04:23:00,62.6,45.2,30.14,SSE,157,4.0,5.0,53,0.00,,,0.00,WUHU21623XXSP,2013-04-22 09:23:00,
2013-04-22 04:24:00,62.4,45.0,30.14,SE,135,5.0,7.0,53,0.00,,,0.00,WUHU21623XXSP,2013-04-22 09:24:00,
2013-04-22 04:25:00,62.4,45.0,30.14,SE,135,5.0,7.0,53,0.00,,,0.00,WUHU21623XXSP,2013-04-22 09:25:00,
2013-04-22 04:26:00,62.4,45.0,30.14,SE,135,4.0,7.0,53,0.00,,,0.00,WUHU21623XXSP,2013-04-22 09:26:00,
2013-04-22 04:27:00,62.4,45.0,30.14,SSE,157,7.0,7.0,53,0.00,,,0.00,WUHU21623XXSP,2013-04-22 09:27:00,
2013-04-22 04:28:00,62.4,45.0,30.14,SE,142,3.0,7.0,53,0.00,,,0.00,WUHU21623XXSP,2013-04-22 09:28:00,
2013-04-22 04:29:00,62.4,45.0,30.14,ESE,123,4.0,7.0,53,0.00,,,0.00,WUHU21623XXSP,2013-04-22 09:29:00,
2013-04-22 04:30:00,62.2,44.9,30.14,ESE,120,4.0,7.0,53,0.00,,,0.00,WUHU21623XXSP,2013-04-22 09:30:00,
2013-04-22 04:31:00,62.2,44.8,30.14,ESE,112,4.0,7.0,53,0.00,,,0.00,WUHU21623XXSP,2013-04-22 09:31:00,
2013-04-22 04:32:00,62.4,45.0,30.14,ESE,109,5.0,7.0,53,0.00,,,0.00,WUHU21623XXSP,2013-04-22 09:32:00,
2013-04-22 04:33:00,62.4,45.0,30.14,ESE,116,5.0,7.0,53,0.00,,,0.00,WUHU21623XXSP,2013-04-22 09:33:00,
2013-04-22 04:34:00,62.4,45.0,30.14,SE,126,4.0,7.0,53,0.00,,,0.00,WUHU21623XXSP,2013-04-22 09:34:00,
2013-04-22 04:38:00,62.1,44.7,30.14,SE,126,4.0,7.0,53,0.00,,,0.00,WUHU21623XXSP,2013-04-22 09:38:00,
2013-04-22 04:39:00,62.2,44.8,30.14,SE,128,3.0,7.0,53,0.00,,,0.00,WUHU21623XXSP,2013-04-22 09:39:00,
2013-04-22 04:40:00,62.2,44.8,30.13,SE,135,3.0,7.0,53,0.00,,,0.00,WUHU21623XXSP,2013-04-22 09:40:00,
2013-04-22 04:41:00,62.2,44.8,30.14,ESE,112,4.0,7.0,53,0.00,,,0.00,WUHU21623XXSP,2013-04-22 09:41:00,
2013-04-22 04:42:00,62.2,44.8,30.13,ESE,120,4.0,7.0,53,0.00,,,0.00,WUHU21623XXSP,2013-04-22 09:42:00,
2013-04-22 04:43:00,62.2,44.8,30.13,SE,124,4.0,7.0,53,0.00,,,0.00,WUHU21623XXSP,2013-04-22 09:43:00,
2013-04-22 04:44:00,62.2,44.8,30.14,SE,130,3.0,7.0,53,0.00,,,0.00,WUHU21623XXSP,2013-04-22 09:44:00,
2013-04-22 04:46:00,62.2,44.8,30.13,SE,135,3.0,7.0,53,0.00,,,0.00,WUHU21623XXSP,2013-04-22 09:46:00,
2013-04-22 04:48:00,62.1,44.7,30.14,SE,126,4.0,7.0,53,0.00,,,0.00,WUHU21623XXSP,2013-04-22 09:48:00,
2013-04-22 04:49:00,62.2,44.8,30.13,SE,132,3.0,7.0,53,0.00,,,0.00,WUHU21623XXSP,2013-04-22 09:49:00,
2013-04-22 04:51:00,62.1,44.7,30.14,ESE,112,5.0,7.0,53,0.00,,,0.00,WUHU21623XXSP,2013-04-22 09:51:00,
2013-04-22 04:53:00,62.1,44.7,30.14,ESE,123,4.0,7.0,53,0.00,,,0.00,WUHU21623XXSP,2013-04-22 09:53:00,
2013-04-22 04:54:00,62.1,44.7,30.14,SE,131,4.0,7.0,53,0.00,,,0.00,WUHU21623XXSP,2013-04-22 09:54:00,
2013-04-22 04:55:00,62.1,44.7,30.14,ESE,112,5.0,7.0,53,0.00,,,0.00,WUHU21623XXSP,2013-04-22 09:55:00,
2013-04-22 04:56:00,61.9,44.5,30.13,SSE,157,5.0,7.0,53,0.00,,,0.00,WUHU21623XXSP,2013-04-22 09:56:00,
2013-04-22 04:57:00,61.9,45.0,30.14,SE,127,4.0,7.0,54,0.00,,,0.00,WUHU21623XXSP,2013-04-22 09:57:00,
2013-04-22 04:58:00,62.1,44.7,30.14,SSE,157,6.0,7.0,53,0.00,,,0.00,WUHU21623XXSP,2013-04-22 09:58:00,
2013-04-22 04:59:00,61.9,44.5,30.13,SSE,148,4.0,7.0,53,0.00,,,0.00,WUHU21623XXSP,2013-04-22 09:59:00,
2013-04-22 05:00:00,61.9,44.5,30.13,ESE,112,4.0,7.0,53,0.00,,,0.00,WUHU21623XXSP,2013-04-22 10:00:00,
2013-04-22 05:02:00,61.9,45.0,30.14,SE,141,4.0,7.0,54,0.00,,,0.00,WUHU21623XXSP,2013-04-22 10:02:00,
2013-04-22 05:03:00,61.9,45.0,30.14,SE,145,5.0,7.0,54,0.00,,,0.00,WUHU21623XXSP,2013-04-22 10:03:00,
2013-04-22 05:05:00,61.9,45.0,30.14,ESE,112,6.0,7.0,54,0.00,,,0.00,WUHU21623XXSP,2013-04-22 10:05:00,
2013-04-22 05:06:00,61.9,45.0,30.14,ESE,112,6.0,7.0,54,0.00,,,0.00,WUHU21623XXSP,2013-04-22 10:06:00,
2013-04-22 05:07:00,61.9,45.0,30.14,SE,135,6.0,7.0,54,0.00,,,0.00,WUHU21623XXSP,2013-04-22 10:07:00,
2013-04-22 05:08:00,61.7,44.8,30.14,SSE,151,4.0,5.0,54,0.00,,,0.00,WUHU21623XXSP,2013-04-22 10:08:00,
2013-04-22 05:09:00,61.7,44.8,30.14,SSE,157,4.0,5.0,54,0.00,,,0.00,WUHU21623XXSP,2013-04-22 10:09:00,
2013-04-22 05:10:00,61.7,44.8,30.15,SE,135,5.0,5.0,54,0.00,,,0.00,WUHU21623XXSP,2013-04-22 10:10:00,
2013-04-22 05:11:00,61.7,44.8,30.14,SSE,157,8.0,9.0,54,0.00,,,0.00,WUHU21623XXSP,2013-04-22 10:11:00,
2013-04-22 05:12:00,61.7,44.8,30.14,SSE,152,6.0,9.0,54,0.00,,,0.00,WUHU21623XXSP,2013-04-22 10:12:00,
2013-04-22 05:13:00,61.7,44.8,30.14,SSE,154,4.0,9.0,54,0.00,,,0.00,WUHU21623XXSP,2013-04-22 10:13:00,
2013-04-22 05:14:00,61.7,44.8,30.15,South,180,5.0,9.0,54,0.00,,,0.00,WUHU21623XXSP,2013-04-22 10:14:00,
2013-04-22 05:15:00,61.7,44.8,30.15,SSE,157,6.0,9.0,54,0.00,,,0.00,WUHU21623XXSP,2013-04-22 10:15:00,
2013-04-22 05:22:00,61.7,44.8,30.14,SSE,161,4.0,9.0,54,0.00,,,0.00,WUHU21623XXSP,2013-04-22 10:22:00,
2013-04-22 05:23:00,61.7,44.8,30.14,SSE,164,4.0,9.0,54,0.00,,,0.00,WUHU21623XXSP,2013-04-22 10:23:00,
2013-04-22 05:24:00,61.7,44.8,30.15,SE,135,4.0,9.0,54,0.00,,,0.00,WUHU21623XXSP,2013-04-22 10:24:00,